Hourly Data Report for November 16, 2019

MIRAMICHI RCS
NEW BRUNSWICK
Current Station Operator: ECCC - MSC

47°00'34.000" N
65°27'54.000" W
33.00 m
8100989
71744
ACQ

Download Data

Hourly Data (November 2019)
Hourly Data Report for November 16, 2019
TIME
LST
Temp Definition
°C
Dew Point Definition
°C
Rel Hum Definition
%
Precip. Amount Definition
mm

Wind Dir Definition
10's deg

Wind Spd Definition
km/h
Visibility Definition
km
Stn Press Definition
kPa
Hmdx Definition


Wind Chill Definition


Weather Definition


00:00 -4.5 -14.0 47 0.0 29 32   100.86   -13 LegendNANA
01:00 -6.0 -14.3 52 0.0 27 24   100.92   -13 LegendNANA
02:00 -6.9 -14.4 55 0.0 27 22   101.03   -14 LegendNANA
03:00 -7.6 -13.7 62 0.0 26 27   101.08   -16 LegendNANA
04:00 -8.0 -13.9 62 0.0 26 30   101.08   -17 LegendNANA
05:00 -9.1 -15.9 58 0.0 27 23   101.19   -17 LegendNANA
06:00 -9.8 -16.4 59 0.0 26 30   101.23   -19 LegendNANA
07:00 -10.6 -16.6 61 0.0 26 20   101.31   -19 LegendNANA
08:00 -9.9 -16.0 61 0.0 27 23   101.39   -18 LegendNANA
09:00 -8.1 -15.0 58 0.0 30 24   101.49   -16 LegendNANA
10:00 -6.5 -14.3 54 0.0 29 28   101.52   -15 LegendNANA
11:00 -5.4 -14.1 51 0.0 29 32   101.57   -14 LegendNANA
12:00 -4.1 -13.5 48 0.0 30 28   101.59   -12 LegendNANA
13:00 -3.3 -13.3 46 0.0 31 27   101.63   -10 LegendNANA
14:00 -3.1 -13.1 46 0.0 30 30   101.71   -11 LegendNANA
15:00 -2.9 -12.9 46 0.0 31 27   101.76   -10 LegendNANA
16:00 -3.1 -12.0 50 0.0 30 25   101.85   -10 LegendNANA
17:00 -3.7 -11.8 54 0.0 29 19   101.99   -10 LegendNANA
18:00 -4.2 -11.8 56 0.0 28 17   102.06   -10 LegendNANA
19:00 -4.8 -11.8 58 0.0 27 18   102.16   -11 LegendNANA
20:00 -5.5 -11.9 61 0.0 28 16   102.26   -11 LegendNANA
21:00 -6.6 -12.1 65 0.0 26 16   102.34   -13 LegendNANA
22:00 -7.3 -12.3 67 0.0 25 11   102.41   -12 LegendNANA
23:00 -7.7 -12.4 69 0.0 25 11   102.48   -13 LegendNANA

Notes on Data Quality.

Legend

  • E = Estimated
  • M = Missing
  • NA = Not Available*
  • [empty] = Indicates an unobserved value
Date modified: